Time,TemperatureF,DewpointF,PressureIn,WindDirection,WindDirectionDegrees,WindSpeedMPH,WindSpeedGustMPH,Humidity,HourlyPrecipIn,Conditions,Clouds,dailyrainin,SoftwareType,DateUTC
2013-01-06 00:01:00,30.8,23.2,30.11,West,262,1.0,1.0,73,0.00,,,0.00,Wunderground v.1.15,2013-01-06 05:01:00,
2013-01-06 00:02:00,30.8,23.2,30.11,East,90,1.0,1.0,73,0.00,,,0.00,Wunderground v.1.15,2013-01-06 05:02:00,
2013-01-06 00:03:00,30.8,23.2,30.10,SW,236,1.0,3.0,73,0.00,,,0.00,Wunderground v.1.15,2013-01-06 05:03:00,
2013-01-06 00:08:00,31.2,23.2,30.10,WSW,246,1.0,3.0,72,0.00,,,0.00,Wunderground v.1.15,2013-01-06 05:08:00,
2013-01-06 00:15:00,31.5,23.2,30.09,WSW,240,3.0,6.0,71,0.00,,,0.00,Wunderground v.1.15,2013-01-06 05:15:00,
2013-01-06 00:21:00,31.6,23.3,30.09,SSW,197,2.0,2.0,71,0.00,,,0.00,Wunderground v.1.15,2013-01-06 05:21:00,
2013-01-06 00:26:00,31.6,23.3,30.10,SSW,195,1.0,4.0,71,0.00,,,0.00,Wunderground v.1.15,2013-01-06 05:26:00,
2013-01-06 00:31:00,31.6,23.3,30.09,South,188,2.0,2.0,71,0.00,,,0.00,Wunderground v.1.15,2013-01-06 05:31:00,
2013-01-06 00:37:00,31.7,23.7,30.10,WNW,294,3.0,5.0,72,0.00,,,0.00,Wunderground v.1.15,2013-01-06 05:37:00,
2013-01-06 00:43:00,31.4,24.1,30.09,WNW,284,3.0,3.0,74,0.00,,,0.00,Wunderground v.1.15,2013-01-06 05:43:00,
2013-01-06 00:48:00,31.1,24.4,30.09,WSW,248,2.0,3.0,76,0.00,,,0.00,Wunderground v.1.15,2013-01-06 05:48:00,
2013-01-06 00:53:00,30.9,24.5,30.08,East,99,2.0,2.0,77,0.00,,,0.00,Wunderground v.1.15,2013-01-06 05:53:00,
2013-01-06 01:00:00,30.7,24.3,30.09,West,266,1.0,2.0,77,0.00,,,0.00,Wunderground v.1.15,2013-01-06 06:00:00,
2013-01-06 01:05:00,30.6,24.6,30.09,SW,226,0.0,1.0,78,0.00,,,0.00,Wunderground v.1.15,2013-01-06 06:05:00,
2013-01-06 01:10:00,30.5,24.8,30.10,East,82,0.0,0.0,79,0.00,,,0.00,Wunderground v.1.15,2013-01-06 06:10:00,
2013-01-06 01:17:00,30.4,25.0,30.09,ESE,122,1.0,2.0,80,0.00,,,0.00,Wunderground v.1.15,2013-01-06 06:17:00,
2013-01-06 01:22:00,30.4,25.3,30.09,SSW,204,1.0,2.0,81,0.00,,,0.00,Wunderground v.1.15,2013-01-06 06:22:00,
2013-01-06 01:28:00,30.4,25.3,30.09,SW,236,1.0,3.0,81,0.00,,,0.00,Wunderground v.1.15,2013-01-06 06:28:00,
2013-01-06 01:33:00,30.4,25.3,30.08,SSW,212,2.0,5.0,81,0.00,,,0.00,Wunderground v.1.15,2013-01-06 06:33:00,
2013-01-06 01:39:00,30.5,25.4,30.08,SW,219,1.0,5.0,81,0.00,,,0.00,Wunderground v.1.15,2013-01-06 06:39:00,
2013-01-06 01:44:00,30.6,25.5,30.07,SSW,203,2.0,2.0,81,0.00,,,0.00,Wunderground v.1.15,2013-01-06 06:44:00,
2013-01-06 01:51:00,30.6,25.2,30.07,SE,133,2.0,2.0,80,0.00,,,0.00,Wunderground v.1.15,2013-01-06 06:51:00,
2013-01-06 01:56:00,30.7,25.3,30.06,SE,126,2.0,5.0,80,0.00,,,0.00,Wunderground v.1.15,2013-01-06 06:56:00,
2013-01-06 02:02:00,30.8,25.1,30.06,SE,143,3.0,3.0,79,0.00,,,0.00,Wunderground v.1.15,2013-01-06 07:02:00,
2013-01-06 02:07:00,30.9,24.8,30.06,ESE,122,2.0,4.0,78,0.00,,,0.00,Wunderground v.1.15,2013-01-06 07:07:00,
2013-01-06 02:13:00,30.9,24.8,30.06,South,170,1.0,2.0,78,0.00,,,0.00,Wunderground v.1.15,2013-01-06 07:13:00,
2013-01-06 02:18:00,31.0,24.6,30.06,SW,222,1.0,3.0,77,0.00,,,0.00,Wunderground v.1.15,2013-01-06 07:18:00,
2013-01-06 02:24:00,31.0,24.6,30.06,SW,236,1.0,3.0,77,0.00,,,0.00,Wunderground v.1.15,2013-01-06 07:24:00,
2013-01-06 02:29:00,31.1,24.4,30.06,SW,229,2.0,5.0,76,0.00,,,0.00,Wunderground v.1.15,2013-01-06 07:29:00,
2013-01-06 02:36:00,31.1,24.4,30.06,WSW,243,2.0,4.0,76,0.00,,,0.00,Wunderground v.1.15,2013-01-06 07:36:00,
2013-01-06 02:41:00,31.2,24.5,30.06,ENE,76,1.0,1.0,76,0.00,,,0.00,Wunderground v.1.15,2013-01-06 07:41:00,
2013-01-06 02:47:00,31.1,24.4,30.05,SE,138,1.0,3.0,76,0.00,,,0.00,Wunderground v.1.15,2013-01-06 07:47:00,
2013-01-06 02:52:00,31.1,24.4,30.05,SSE,150,2.0,4.0,76,0.00,,,0.00,Wunderground v.1.15,2013-01-06 07:52:00,
2013-01-06 02:58:00,31.1,24.4,30.05,WNW,290,2.0,4.0,76,0.00,,,0.00,Wunderground v.1.15,2013-01-06 07:58:00,
2013-01-06 03:04:00,31.1,24.4,30.05,SW,214,0.0,1.0,76,0.00,,,0.00,Wunderground v.1.15,2013-01-06 08:04:00,
2013-01-06 03:10:00,31.1,24.4,30.04,East,101,1.0,2.0,76,0.00,,,0.00,Wunderground v.1.15,2013-01-06 08:10:00,
2013-01-06 03:15:00,31.2,24.5,30.04,SSE,167,2.0,6.0,76,0.00,,,0.00,Wunderground v.1.15,2013-01-06 08:15:00,
2013-01-06 03:21:00,31.2,24.8,30.04,ESE,112,2.0,2.0,77,0.00,,,0.00,Wunderground v.1.15,2013-01-06 08:21:00,
2013-01-06 03:26:00,31.2,25.1,30.04,SSW,200,1.0,4.0,78,0.00,,,0.00,Wunderground v.1.15,2013-01-06 08:26:00,
2013-01-06 03:33:00,31.2,25.1,30.03,East,84,1.0,2.0,78,0.00,,,0.00,Wunderground v.1.15,2013-01-06 08:33:00,
2013-01-06 03:38:00,31.3,25.5,30.03,ESE,112,2.0,3.0,79,0.00,,,0.00,Wunderground v.1.15,2013-01-06 08:38:00,
2013-01-06 03:43:00,31.3,25.5,30.03,SW,215,2.0,2.0,79,0.00,,,0.00,Wunderground v.1.15,2013-01-06 08:43:00,
2013-01-06 03:49:00,31.4,25.6,30.03,West,269,2.0,7.0,79,0.00,,,0.00,Wunderground v.1.15,2013-01-06 08:49:00,
2013-01-06 03:54:00,31.4,25.9,30.02,SE,139,2.0,3.0,80,0.00,,,0.00,Wunderground v.1.15,2013-01-06 08:54:00,
2013-01-06 04:01:00,31.4,25.9,30.02,ESE,111,1.0,3.0,80,0.00,,,0.00,Wunderground v.1.15,2013-01-06 09:01:00,
2013-01-06 04:06:00,31.3,25.8,30.02,ESE,102,1.0,3.0,80,0.00,,,0.00,Wunderground v.1.15,2013-01-06 09:06:00,
2013-01-06 04:12:00,31.3,25.5,30.01,SE,129,2.0,4.0,79,0.00,,,0.00,Wunderground v.1.15,2013-01-06 09:12:00,
2013-01-06 04:17:00,31.3,25.5,30.00,ESE,122,2.0,4.0,79,0.00,,,0.00,Wunderground v.1.15,2013-01-06 09:17:00,
2013-01-06 04:23:00,31.4,25.3,30.00,SE,136,2.0,4.0,78,0.00,,,0.00,Wunderground v.1.15,2013-01-06 09:23:00,
2013-01-06 04:28:00,31.5,25.1,30.00,SSE,152,2.0,5.0,77,0.00,,,0.00,Wunderground v.1.15,2013-01-06 09:28:00,
2013-01-06 04:33:00,31.6,25.2,30.00,East,88,2.0,4.0,77,0.00,,,0.00,Wunderground v.1.15,2013-01-06 09:33:00,
2013-01-06 04:38:00,31.7,25.0,29.99,ESE,120,2.0,4.0,76,0.00,,,0.00,Wunderground v.1.15,2013-01-06 09:38:00,
2013-01-06 04:44:00,31.8,25.1,29.99,SE,134,2.0,3.0,76,0.00,,,0.00,Wunderground v.1.15,2013-01-06 09:44:00,
2013-01-06 04:49:00,31.9,24.9,29.99,SE,145,2.0,3.0,75,0.00,,,0.00,Wunderground v.1.15,2013-01-06 09:49:00,
2013-01-06 04:54:00,32.0,25.0,29.99,South,169,2.0,4.0,75,0.00,,,0.00,Wunderground v.1.15,2013-01-06 09:54:00,
2013-01-06 05:01:00,32.1,24.7,29.99,SE,145,2.0,2.0,74,0.00,,,0.00,Wunderground v.1.15,2013-01-06 10:01:00,
2013-01-06 05:07:00,32.2,24.8,29.99,SSW,193,2.0,5.0,74,0.00,,,0.00,Wunderground v.1.15,2013-01-06 10:07:00,
2013-01-06 05:12:00,32.4,25.0,29.98,SSE,155,3.0,3.0,74,0.00,,,0.00,Wunderground v.1.15,2013-01-06 10:12:00,
2013-01-06 05:17:00,32.4,25.0,29.98,ESE,119,2.0,3.0,74,0.00,,,0.00,Wunderground v.1.15,2013-01-06 10:17:00,
2013-01-06 05:22:00,32.5,25.1,29.98,ESE,113,2.0,3.0,74,0.00,,,0.00,Wunderground v.1.15,2013-01-06 10:22:00,
2013-01-06 05:28:00,32.5,25.1,29.99,SW,218,2.0,3.0,74,0.00,,,0.00,Wunderground v.1.15,2013-01-06 10:28:00,
2013-01-06 05:33:00,32.7,25.0,29.99,SE,129,2.0,6.0,73,0.00,,,0.00,Wunderground v.1.15,2013-01-06 10:33:00,
2013-01-06 05:39:00,32.7,25.0,29.99,SW,225,2.0,6.0,73,0.00,,,0.00,Wunderground v.1.15,2013-01-06 10:39:00,
2013-01-06 05:44:00,32.8,25.1,29.99,WSW,248,2.0,4.0,73,0.00,,,0.00,Wunderground v.1.15,2013-01-06 10:44:00,
2013-01-06 05:49:00,32.9,25.2,29.99,SW,219,2.0,4.0,73,0.00,,,0.00,Wunderground v.1.15,2013-01-06 10:49:00,
2013-01-06 05:54:00,33.1,25.4,29.99,SW,222,3.0,6.0,73,0.00,,,0.00,Wunderground v.1.15,2013-01-06 10:54:00,
2013-01-06 06:01:00,33.1,25.7,29.99,West,264,3.0,8.0,74,0.00,,,0.00,Wunderground v.1.15,2013-01-06 11:01:00,
2013-01-06 06:06:00,33.2,26.1,29.99,West,269,3.0,8.0,75,0.00,,,0.00,Wunderground v.1.15,2013-01-06 11:06:00,
2013-01-06 06:12:00,33.1,26.7,29.99,WSW,258,3.0,10.0,77,0.00,,,0.00,Wunderground v.1.15,2013-01-06 11:12:00,
2013-01-06 06:17:00,32.9,27.1,29.99,SSW,207,3.0,10.0,79,0.00,,,0.00,Wunderground v.1.15,2013-01-06 11:17:00,
2013-01-06 06:22:00,32.6,27.1,29.99,WSW,252,3.0,8.0,80,0.00,,,0.00,Wunderground v.1.15,2013-01-06 11:22:00,
2013-01-06 06:28:00,32.4,27.5,29.99,SSE,160,4.0,8.0,82,0.00,,,0.00,Wunderground v.1.15,2013-01-06 11:28:00,
2013-01-06 06:33:00,32.1,27.8,29.99,West,278,3.0,4.0,84,0.00,,,0.00,Wunderground v.1.15,2013-01-06 11:33:00,
2013-01-06 06:39:00,31.7,28.0,29.99,West,276,2.0,4.0,86,0.00,,,0.00,Wunderground v.1.15,2013-01-06 11:39:00,
2013-01-06 06:44:00,31.5,28.1,29.99,SSE,163,2.0,5.0,87,0.00,,,0.00,Wunderground v.1.15,2013-01-06 11:44:00,
2013-01-06 06:49:00,31.4,28.0,29.99,WSW,255,2.0,5.0,87,0.00,,,0.00,Wunderground v.1.15,2013-01-06 11:49:00,
2013-01-06 06:54:00,31.3,28.2,29.99,East,101,2.0,3.0,88,0.00,,,0.00,Wunderground v.1.15,2013-01-06 11:54:00,
2013-01-06 06:59:00,31.3,27.9,29.99,ESE,113,3.0,5.0,87,0.00,,,0.00,Wunderground v.1.15,2013-01-06 11:59:00,
2013-01-06 07:05:00,31.4,28.0,29.99,SSE,159,2.0,4.0,87,0.00,,,0.00,Wunderground v.1.15,2013-01-06 12:05:00,
2013-01-06 07:10:00,31.4,28.0,29.98,ESE,114,2.0,5.0,87,0.00,,,0.00,Wunderground v.1.15,2013-01-06 12:10:00,
2013-01-06 07:17:00,31.4,28.0,29.98,SE,146,2.0,8.0,87,0.00,,,0.00,Wunderground v.1.15,2013-01-06 12:17:00,
2013-01-06 07:22:00,31.6,28.2,29.98,ESE,105,3.0,3.0,87,0.00,,,0.00,Wunderground v.1.15,2013-01-06 12:22:00,
2013-01-06 07:27:00,31.6,28.2,29.97,ESE,110,3.0,5.0,87,0.00,,,0.00,Wunderground v.1.15,2013-01-06 12:27:00,
2013-01-06 07:33:00,31.6,28.2,29.98,SW,218,2.0,6.0,87,0.00,,,0.00,Wunderground v.1.15,2013-01-06 12:33:00,
2013-01-06 07:38:00,31.7,28.0,29.97,SE,144,2.0,6.0,86,0.00,,,0.00,Wunderground v.1.15,2013-01-06 12:38:00,
2013-01-06 07:43:00,32.0,28.0,29.97,South,174,3.0,7.0,85,0.00,,,0.00,Wunderground v.1.15,2013-01-06 12:43:00,
2013-01-06 07:48:00,32.1,28.1,29.97,SE,139,4.0,7.0,85,0.00,,,0.00,Wunderground v.1.15,2013-01-06 12:48:00,
2013-01-06 07:54:00,32.3,28.0,29.97,SSW,200,3.0,5.0,84,0.00,,,0.00,Wunderground v.1.15,2013-01-06 12:54:00,
2013-01-06 07:59:00,32.5,27.9,29.97,SW,226,4.0,5.0,83,0.00,,,0.00,Wunderground v.1.15,2013-01-06 12:59:00,
2013-01-06 08:05:00,32.7,27.8,29.96,SE,134,3.0,7.0,82,0.00,,,0.00,Wunderground v.1.15,2013-01-06 13:05:00,
2013-01-06 08:11:00,32.9,27.7,29.97,SW,232,3.0,3.0,81,0.00,,,0.00,Wunderground v.1.15,2013-01-06 13:11:00,
2013-01-06 08:16:00,33.0,27.5,29.96,ESE,107,2.0,4.0,80,0.00,,,0.00,Wunderground v.1.15,2013-01-06 13:16:00,
2013-01-06 08:23:00,33.3,27.8,29.97,ESE,122,2.0,3.0,80,0.00,,,0.00,Wunderground v.1.15,2013-01-06 13:23:00,
2013-01-06 08:28:00,33.9,28.1,29.96,SE,129,2.0,4.0,79,0.00,,,0.00,Wunderground v.1.15,2013-01-06 13:28:00,
2013-01-06 08:34:00,34.4,27.9,29.97,West,281,3.0,9.0,77,0.00,,,0.00,Wunderground v.1.15,2013-01-06 13:34:00,
2013-01-06 08:39:00,34.7,27.9,29.97,SSW,197,5.0,9.0,76,0.00,,,0.00,Wunderground v.1.15,2013-01-06 13:39:00,
2013-01-06 08:44:00,34.7,27.9,29.97,West,281,4.0,5.0,76,0.00,,,0.00,Wunderground v.1.15,2013-01-06 13:44:00,
2013-01-06 08:49:00,34.8,28.0,29.96,West,274,4.0,8.0,76,0.00,,,0.00,Wunderground v.1.15,2013-01-06 13:49:00,
2013-01-06 08:55:00,35.1,28.0,29.96,West,269,4.0,9.0,75,0.00,,,0.00,Wunderground v.1.15,2013-01-06 13:55:00,
2013-01-06 09:01:00,35.4,27.9,29.97,West,259,4.0,4.0,74,0.00,,,0.00,Wunderground v.1.15,2013-01-06 14:01:00,
2013-01-06 09:06:00,35.5,28.0,29.97,West,281,4.0,5.0,74,0.00,,,0.00,Wunderground v.1.15,2013-01-06 14:06:00,
2013-01-06 09:11:00,35.7,28.2,29.97,SW,235,4.0,4.0,74,0.00,,,0.00,Wunderground v.1.15,2013-01-06 14:11:00,
2013-01-06 09:16:00,35.9,28.1,29.97,SE,136,4.0,7.0,73,0.00,,,0.00,Wunderground v.1.15,2013-01-06 14:16:00,
2013-01-06 09:22:00,36.1,28.3,29.97,West,276,4.0,4.0,73,0.00,,,0.00,Wunderground v.1.15,2013-01-06 14:22:00,
2013-01-06 09:27:00,36.4,28.2,29.97,West,276,5.0,9.0,72,0.00,,,0.00,Wunderground v.1.15,2013-01-06 14:27:00,
2013-01-06 09:33:00,36.5,28.3,29.97,WSW,256,5.0,8.0,72,0.00,,,0.00,Wunderground v.1.15,2013-01-06 14:33:00,
2013-01-06 09:38:00,36.8,28.6,29.97,WSW,250,5.0,8.0,72,0.00,,,0.00,Wunderground v.1.15,2013-01-06 14:38:00,
2013-01-06 09:44:00,36.9,28.4,29.97,West,263,5.0,10.0,71,0.00,,,0.00,Wunderground v.1.15,2013-01-06 14:44:00,
2013-01-06 09:50:00,37.2,28.7,29.97,South,188,5.0,5.0,71,0.00,,,0.00,Wunderground v.1.15,2013-01-06 14:50:00,
2013-01-06 09:55:00,37.3,28.8,29.97,SSW,193,4.0,8.0,71,0.00,,,0.00,Wunderground v.1.15,2013-01-06 14:55:00,
2013-01-06 10:01:00,37.5,28.6,29.96,SW,235,4.0,4.0,70,0.00,,,0.00,Wunderground v.1.15,2013-01-06 15:01:00,
2013-01-06 10:06:00,37.8,28.9,29.96,SE,143,4.0,5.0,70,0.00,,,0.00,Wunderground v.1.15,2013-01-06 15:06:00,
2013-01-06 10:12:00,38.1,28.8,29.96,WNW,287,3.0,4.0,69,0.00,,,0.00,Wunderground v.1.15,2013-01-06 15:12:00,
2013-01-06 10:17:00,38.4,29.1,29.96,WSW,250,3.0,7.0,69,0.00,,,0.00,Wunderground v.1.15,2013-01-06 15:17:00,
2013-01-06 10:22:00,38.6,28.9,29.96,SSE,149,4.0,4.0,68,0.00,,,0.00,Wunderground v.1.15,2013-01-06 15:22:00,
2013-01-06 10:27:00,38.6,28.9,29.96,SW,232,4.0,5.0,68,0.00,,,0.00,Wunderground v.1.15,2013-01-06 15:27:00,
2013-01-06 10:33:00,38.5,29.2,29.96,WNW,284,4.0,5.0,69,0.00,,,0.00,Wunderground v.1.15,2013-01-06 15:33:00,
2013-01-06 10:38:00,38.3,29.0,29.96,SW,214,6.0,11.0,69,0.00,,,0.00,Wunderground v.1.15,2013-01-06 15:38:00,
2013-01-06 10:44:00,38.2,29.3,29.96,ESE,120,5.0,5.0,70,0.00,,,0.00,Wunderground v.1.15,2013-01-06 15:44:00,
2013-01-06 10:49:00,38.1,28.8,29.96,ESE,102,3.0,8.0,69,0.00,,,0.00,Wunderground v.1.15,2013-01-06 15:49:00,
2013-01-06 10:54:00,37.9,29.0,29.95,WNW,288,4.0,6.0,70,0.00,,,0.00,Wunderground v.1.15,2013-01-06 15:54:00,
2013-01-06 10:59:00,37.8,28.9,29.95,SW,232,4.0,8.0,70,0.00,,,0.00,Wunderground v.1.15,2013-01-06 15:59:00,
2013-01-06 11:04:00,37.7,28.8,29.95,West,276,4.0,4.0,70,0.00,,,0.00,Wunderground v.1.15,2013-01-06 16:04:00,
2013-01-06 11:10:00,37.5,28.6,29.95,WNW,288,5.0,5.0,70,0.00,,,0.00,Wunderground v.1.15,2013-01-06 16:10:00,
2013-01-06 11:16:00,37.4,28.9,29.95,ESE,106,6.0,10.0,71,0.00,,,0.00,Wunderground v.1.15,2013-01-06 16:16:00,
2013-01-06 11:21:00,37.3,28.8,29.94,WSW,238,6.0,7.0,71,0.00,,,0.00,Wunderground v.1.15,2013-01-06 16:21:00,
2013-01-06 11:27:00,37.3,28.8,29.94,WSW,243,6.0,8.0,71,0.00,,,0.00,Wunderground v.1.15,2013-01-06 16:27:00,
2013-01-06 11:33:00,37.3,29.1,29.93,ESE,122,6.0,8.0,72,0.00,,,0.00,Wunderground v.1.15,2013-01-06 16:33:00,
2013-01-06 11:38:00,37.2,29.0,29.93,WNW,287,5.0,8.0,72,0.00,,,0.00,Wunderground v.1.15,2013-01-06 16:38:00,
2013-01-06 11:44:00,37.2,29.0,29.93,SW,218,5.0,8.0,72,0.00,,,0.00,Wunderground v.1.15,2013-01-06 16:44:00,
2013-01-06 11:49:00,37.2,29.3,29.93,WNW,295,5.0,13.0,73,0.00,,,0.00,Wunderground v.1.15,2013-01-06 16:49:00,
2013-01-06 11:54:00,37.4,29.5,29.92,SE,139,5.0,5.0,73,0.00,,,0.00,Wunderground v.1.15,2013-01-06 16:54:00,
2013-01-06 11:59:00,37.5,29.6,29.92,SW,222,3.0,5.0,73,0.00,,,0.00,Wunderground v.1.15,2013-01-06 16:59:00,
2013-01-06 12:05:00,37.5,29.6,29.92,SW,218,3.0,3.0,73,0.00,,,0.00,Wunderground v.1.15,2013-01-06 17:05:00,
2013-01-06 12:10:00,37.6,29.4,29.92,WSW,252,3.0,3.0,72,0.00,,,0.00,Wunderground v.1.15,2013-01-06 17:10:00,
2013-01-06 12:15:00,37.7,29.1,29.92,WNW,302,5.0,8.0,71,0.00,,,0.00,Wunderground v.1.15,2013-01-06 17:15:00,
2013-01-06 12:22:00,37.8,29.2,29.91,South,184,6.0,12.0,71,0.00,,,0.00,Wunderground v.1.15,2013-01-06 17:22:00,
2013-01-06 12:27:00,37.8,29.2,29.91,WSW,246,6.0,12.0,71,0.00,,,0.00,Wunderground v.1.15,2013-01-06 17:27:00,
2013-01-06 12:32:00,37.8,29.2,29.91,SSW,208,5.0,11.0,71,0.00,,,0.00,Wunderground v.1.15,2013-01-06 17:32:00,
2013-01-06 12:37:00,37.8,29.2,29.91,SE,144,5.0,11.0,71,0.00,,,0.00,Wunderground v.1.15,2013-01-06 17:37:00,
2013-01-06 12:44:00,37.9,29.0,29.90,South,177,4.0,5.0,70,0.00,,,0.00,Wunderground v.1.15,2013-01-06 17:44:00,
2013-01-06 12:49:00,38.1,29.2,29.90,WSW,257,4.0,6.0,70,0.00,,,0.00,Wunderground v.1.15,2013-01-06 17:49:00,
2013-01-06 12:55:00,38.2,29.3,29.90,West,266,3.0,4.0,70,0.00,,,0.00,Wunderground v.1.15,2013-01-06 17:55:00,
2013-01-06 13:01:00,38.2,29.3,29.90,WNW,295,4.0,4.0,70,0.00,,,0.00,Wunderground v.1.15,2013-01-06 18:01:00,
2013-01-06 13:06:00,38.1,29.5,29.90,SW,235,5.0,5.0,71,0.00,,,0.00,Wunderground v.1.15,2013-01-06 18:06:00,
2013-01-06 13:11:00,38.0,29.4,29.90,West,262,4.0,7.0,71,0.00,,,0.00,Wunderground v.1.15,2013-01-06 18:11:00,
2013-01-06 13:17:00,38.0,29.8,29.90,West,264,5.0,9.0,72,0.00,,,0.00,Wunderground v.1.15,2013-01-06 18:17:00,
2013-01-06 13:22:00,38.0,29.8,29.90,WSW,246,4.0,4.0,72,0.00,,,0.00,Wunderground v.1.15,2013-01-06 18:22:00,
2013-01-06 13:27:00,38.1,29.5,29.90,SE,131,3.0,7.0,71,0.00,,,0.00,Wunderground v.1.15,2013-01-06 18:27:00,
2013-01-06 13:33:00,38.2,29.6,29.90,WNW,296,3.0,11.0,71,0.00,,,0.00,Wunderground v.1.15,2013-01-06 18:33:00,
2013-01-06 13:38:00,38.2,29.6,29.90,West,277,4.0,11.0,71,0.00,,,0.00,Wunderground v.1.15,2013-01-06 18:38:00,
2013-01-06 13:43:00,38.2,30.0,29.90,West,269,5.0,12.0,72,0.00,,,0.00,Wunderground v.1.15,2013-01-06 18:43:00,
2013-01-06 13:48:00,38.1,29.9,29.90,West,281,5.0,12.0,72,0.00,,,0.00,Wunderground v.1.15,2013-01-06 18:48:00,
2013-01-06 13:54:00,38.0,30.1,29.90,West,268,3.0,9.0,73,0.00,,,0.00,Wunderground v.1.15,2013-01-06 18:54:00,
2013-01-06 13:59:00,37.9,30.4,29.90,SE,125,3.0,9.0,74,0.00,,,0.00,Wunderground v.1.15,2013-01-06 18:59:00,
2013-01-06 14:05:00,37.6,30.4,29.90,SW,226,3.0,7.0,75,0.00,,,0.00,Wunderground v.1.15,2013-01-06 19:05:00,
2013-01-06 14:11:00,37.5,30.6,29.90,WNW,287,3.0,4.0,76,0.00,,,0.00,Wunderground v.1.15,2013-01-06 19:11:00,
2013-01-06 14:16:00,37.6,30.7,29.90,WNW,291,3.0,6.0,76,0.00,,,0.00,Wunderground v.1.15,2013-01-06 19:16:00,
2013-01-06 14:22:00,37.8,30.9,29.90,SSW,198,3.0,3.0,76,0.00,,,0.00,Wunderground v.1.15,2013-01-06 19:22:00,
2013-01-06 14:28:00,38.1,30.9,29.90,WSW,253,3.0,5.0,75,0.00,,,0.00,Wunderground v.1.15,2013-01-06 19:28:00,
2013-01-06 14:34:00,38.3,30.7,29.89,WSW,248,3.0,3.0,74,0.00,,,0.00,Wunderground v.1.15,2013-01-06 19:34:00,
2013-01-06 14:40:00,38.3,30.4,29.89,WSW,240,3.0,6.0,73,0.00,,,0.00,Wunderground v.1.15,2013-01-06 19:40:00,
2013-01-06 14:45:00,38.3,30.4,29.90,West,259,4.0,6.0,73,0.00,,,0.00,Wunderground v.1.15,2013-01-06 19:45:00,
2013-01-06 14:51:00,38.4,30.2,29.90,WSW,257,4.0,12.0,72,0.00,,,0.00,Wunderground v.1.15,2013-01-06 19:51:00,
2013-01-06 14:56:00,38.4,30.2,29.90,WSW,250,5.0,12.0,72,0.00,,,0.00,Wunderground v.1.15,2013-01-06 19:56:00,
2013-01-06 15:02:00,38.5,30.3,29.90,WSW,250,4.0,5.0,72,0.00,,,0.00,Wunderground v.1.15,2013-01-06 20:02:00,
2013-01-06 15:07:00,38.5,30.3,29.90,West,280,4.0,9.0,72,0.00,,,0.00,Wunderground v.1.15,2013-01-06 20:07:00,
2013-01-06 15:11:00,38.6,30.4,29.90,NW,308,5.0,5.0,72,0.00,,,0.00,Wunderground v.1.15,2013-01-06 20:11:00,
2013-01-06 15:13:00,38.6,30.0,29.90,SW,232,5.0,5.0,71,0.00,,,0.00,Wunderground v.1.15,2013-01-06 20:13:00,
2013-01-06 15:18:00,38.6,30.4,29.90,WNW,287,5.0,5.0,72,0.00,,,0.00,Wunderground v.1.15,2013-01-06 20:18:00,
2013-01-06 15:23:00,38.6,30.0,29.90,WSW,246,4.0,7.0,71,0.00,,,0.00,Wunderground v.1.15,2013-01-06 20:23:00,
2013-01-06 15:29:00,38.6,30.0,29.90,WNW,284,3.0,7.0,71,0.00,,,0.00,Wunderground v.1.15,2013-01-06 20:29:00,
2013-01-06 15:35:00,38.6,30.0,29.90,SW,226,2.0,6.0,71,0.00,,,0.00,Wunderground v.1.15,2013-01-06 20:35:00,
2013-01-06 15:40:00,38.5,29.9,29.91,WNW,294,3.0,3.0,71,0.00,,,0.00,Wunderground v.1.15,2013-01-06 20:40:00,
2013-01-06 15:46:00,38.5,29.9,29.91,WNW,284,3.0,7.0,71,0.00,,,0.00,Wunderground v.1.15,2013-01-06 20:46:00,
2013-01-06 15:51:00,38.6,30.0,29.91,ESE,105,3.0,4.0,71,0.00,,,0.00,Wunderground v.1.15,2013-01-06 20:51:00,
2013-01-06 15:57:00,38.6,30.0,29.91,WSW,240,4.0,9.0,71,0.00,,,0.00,Wunderground v.1.15,2013-01-06 20:57:00,
2013-01-06 16:02:00,38.6,30.4,29.92,WSW,242,4.0,6.0,72,0.00,,,0.00,Wunderground v.1.15,2013-01-06 21:02:00,
2013-01-06 16:08:00,38.5,30.3,29.92,WSW,240,5.0,9.0,72,0.00,,,0.00,Wunderground v.1.15,2013-01-06 21:08:00,
2013-01-06 16:13:00,38.4,30.5,29.92,WNW,295,6.0,8.0,73,0.00,,,0.00,Wunderground v.1.15,2013-01-06 21:13:00,
2013-01-06 16:19:00,38.1,30.5,29.92,West,264,4.0,8.0,74,0.00,,,0.00,Wunderground v.1.15,2013-01-06 21:19:00,
2013-01-06 16:24:00,37.9,30.7,29.92,ENE,68,3.0,4.0,75,0.00,,,0.00,Wunderground v.1.15,2013-01-06 21:24:00,
2013-01-06 16:30:00,37.6,31.0,29.93,WNW,293,4.0,4.0,77,0.00,,,0.00,Wunderground v.1.15,2013-01-06 21:30:00,
2013-01-06 16:36:00,37.3,31.1,29.93,West,281,5.0,7.0,78,0.00,,,0.00,Wunderground v.1.15,2013-01-06 21:36:00,
2013-01-06 16:41:00,37.0,31.4,29.93,West,273,6.0,13.0,80,0.00,,,0.00,Wunderground v.1.15,2013-01-06 21:41:00,
2013-01-06 16:47:00,36.6,31.6,29.93,NW,305,5.0,13.0,82,0.00,,,0.00,Wunderground v.1.15,2013-01-06 21:47:00,
2013-01-06 16:52:00,36.3,31.6,29.94,WNW,285,3.0,5.0,83,0.00,,,0.00,Wunderground v.1.15,2013-01-06 21:52:00,
2013-01-06 16:58:00,36.1,31.7,29.94,West,281,2.0,5.0,84,0.00,,,0.00,Wunderground v.1.15,2013-01-06 21:58:00,
2013-01-06 17:04:00,36.1,31.7,29.93,SSW,194,1.0,3.0,84,0.00,,,0.00,Wunderground v.1.15,2013-01-06 22:04:00,
2013-01-06 17:09:00,36.0,31.6,29.94,East,99,1.0,3.0,84,0.00,,,0.00,Wunderground v.1.15,2013-01-06 22:09:00,
2013-01-06 17:15:00,36.1,31.7,29.94,WNW,285,1.0,3.0,84,0.00,,,0.00,Wunderground v.1.15,2013-01-06 22:15:00,
2013-01-06 17:20:00,36.3,31.9,29.94,West,271,1.0,1.0,84,0.00,,,0.00,Wunderground v.1.15,2013-01-06 22:20:00,
2013-01-06 17:26:00,36.4,32.0,29.94,West,276,3.0,13.0,84,0.00,,,0.00,Wunderground v.1.15,2013-01-06 22:26:00,
2013-01-06 17:32:00,36.2,32.1,29.94,West,271,4.0,6.0,85,0.00,,,0.00,Wunderground v.1.15,2013-01-06 22:32:00,
2013-01-06 17:37:00,36.0,32.2,29.94,West,259,4.0,7.0,86,0.00,,,0.00,Wunderground v.1.15,2013-01-06 22:37:00,
2013-01-06 17:42:00,35.9,32.4,29.94,WNW,284,3.0,8.0,87,0.00,,,0.00,Wunderground v.1.15,2013-01-06 22:42:00,
2013-01-06 17:47:00,35.8,32.3,29.94,WSW,248,3.0,8.0,87,0.00,,,0.00,Wunderground v.1.15,2013-01-06 22:47:00,
2013-01-06 17:53:00,35.6,32.1,29.94,West,271,1.0,6.0,87,0.00,,,0.00,Wunderground v.1.15,2013-01-06 22:53:00,
2013-01-06 17:58:00,35.6,32.4,29.95,West,281,1.0,6.0,88,0.00,,,0.00,Wunderground v.1.15,2013-01-06 22:58:00,
2013-01-06 18:03:00,35.6,32.4,29.95,WNW,284,2.0,2.0,88,0.00,,,0.00,Wunderground v.1.15,2013-01-06 23:03:00,
2013-01-06 18:09:00,35.6,32.4,29.95,West,266,2.0,4.0,88,0.00,,,0.00,Wunderground v.1.15,2013-01-06 23:09:00,
2013-01-06 18:15:00,35.6,32.4,29.95,West,260,2.0,8.0,88,0.00,,,0.01,Wunderground v.1.15,2013-01-06 23:15:00,
2013-01-06 18:20:00,35.6,32.7,29.95,WSW,252,3.0,5.0,89,0.00,,,0.01,Wunderground v.1.15,2013-01-06 23:20:00,
2013-01-06 18:25:00,35.4,32.5,29.96,West,280,3.0,5.0,89,0.00,,,0.01,Wunderground v.1.15,2013-01-06 23:25:00,
2013-01-06 18:31:00,35.5,32.6,29.96,WSW,243,3.0,4.0,89,0.00,,,0.01,Wunderground v.1.15,2013-01-06 23:31:00,
2013-01-06 18:36:00,35.4,32.5,29.96,ESE,118,2.0,4.0,89,0.00,,,0.01,Wunderground v.1.15,2013-01-06 23:36:00,
2013-01-06 18:41:00,35.4,32.5,29.96,WNW,284,2.0,4.0,89,0.00,,,0.01,Wunderground v.1.15,2013-01-06 23:41:00,
2013-01-06 18:47:00,35.4,32.8,29.96,SE,125,1.0,6.0,90,0.00,,,0.01,Wunderground v.1.15,2013-01-06 23:47:00,
2013-01-06 18:52:00,35.5,32.9,29.96,SW,218,2.0,6.0,90,0.00,,,0.01,Wunderground v.1.15,2013-01-06 23:52:00,
2013-01-06 18:57:00,35.6,32.7,29.96,WSW,243,3.0,7.0,89,0.00,,,0.01,Wunderground v.1.15,2013-01-06 23:57:00,
2013-01-06 19:03:00,35.6,32.7,29.97,WNW,284,2.0,3.0,89,0.00,,,0.01,Wunderground v.1.15,2013-01-07 00:03:00,
2013-01-06 19:08:00,35.6,32.7,29.96,West,281,2.0,4.0,89,0.00,,,0.01,Wunderground v.1.15,2013-01-07 00:08:00,
2013-01-06 19:14:00,35.6,32.7,29.96,West,269,2.0,3.0,89,0.00,,,0.01,Wunderground v.1.15,2013-01-07 00:14:00,
2013-01-06 19:19:00,35.6,32.7,29.96,SE,143,2.0,6.0,89,0.00,,,0.01,Wunderground v.1.15,2013-01-07 00:19:00,
2013-01-06 19:25:00,35.7,32.5,29.97,West,263,3.0,4.0,88,0.00,,,0.01,Wunderground v.1.15,2013-01-07 00:25:00,
2013-01-06 19:30:00,35.7,32.5,29.97,SW,228,4.0,4.0,88,0.00,,,0.01,Wunderground v.1.15,2013-01-07 00:30:00,
2013-01-06 19:35:00,35.8,32.6,29.96,South,181,3.0,7.0,88,0.00,,,0.01,Wunderground v.1.15,2013-01-07 00:35:00,
2013-01-06 19:41:00,36.0,32.5,29.97,SW,228,4.0,4.0,87,0.00,,,0.01,Wunderground v.1.15,2013-01-07 00:41:00,
2013-01-06 19:46:00,35.9,32.4,29.97,WNW,300,4.0,10.0,87,0.00,,,0.01,Wunderground v.1.15,2013-01-07 00:46:00,
2013-01-06 19:52:00,36.1,32.6,29.97,SW,222,5.0,7.0,87,0.00,,,0.01,Wunderground v.1.15,2013-01-07 00:52:00,
2013-01-06 19:57:00,36.0,32.5,29.97,West,264,4.0,9.0,87,0.00,,,0.01,Wunderground v.1.15,2013-01-07 00:57:00,
2013-01-06 20:03:00,36.0,32.5,29.97,SSW,211,3.0,9.0,87,0.00,,,0.01,Wunderground v.1.15,2013-01-07 01:03:00,
2013-01-06 20:08:00,36.0,32.5,29.97,WNW,295,3.0,9.0,87,0.00,,,0.01,Wunderground v.1.15,2013-01-07 01:08:00,
2013-01-06 20:13:00,36.1,32.3,29.97,South,183,4.0,10.0,86,0.00,,,0.01,Wunderground v.1.15,2013-01-07 01:13:00,
2013-01-06 20:19:00,36.1,32.6,29.97,WNW,287,5.0,10.0,87,0.00,,,0.01,Wunderground v.1.15,2013-01-07 01:19:00,
2013-01-06 20:24:00,36.0,32.5,29.97,WSW,242,4.0,8.0,87,0.00,,,0.01,Wunderground v.1.15,2013-01-07 01:24:00,
2013-01-06 20:29:00,36.0,32.5,29.97,WNW,284,4.0,11.0,87,0.00,,,0.01,Wunderground v.1.15,2013-01-07 01:29:00,
2013-01-06 20:34:00,36.0,32.5,29.97,SW,235,4.0,4.0,87,0.00,,,0.01,Wunderground v.1.15,2013-01-07 01:34:00,
2013-01-06 20:39:00,35.9,32.4,29.98,NW,304,4.0,4.0,87,0.00,,,0.01,Wunderground v.1.15,2013-01-07 01:39:00,
2013-01-06 20:45:00,35.9,32.7,29.98,West,281,3.0,7.0,88,0.00,,,0.01,Wunderground v.1.15,2013-01-07 01:45:00,
2013-01-06 20:51:00,35.7,32.5,29.98,SW,226,4.0,4.0,88,0.00,,,0.01,Wunderground v.1.15,2013-01-07 01:51:00,
2013-01-06 20:56:00,35.7,32.5,29.98,West,274,4.0,13.0,88,0.00,,,0.01,Wunderground v.1.15,2013-01-07 01:56:00,
2013-01-06 21:02:00,35.8,32.6,29.98,WSW,243,6.0,14.0,88,0.00,,,0.01,Wunderground v.1.15,2013-01-07 02:02:00,
2013-01-06 21:08:00,35.8,32.6,29.99,WNW,289,6.0,14.0,88,0.00,,,0.01,Wunderground v.1.15,2013-01-07 02:08:00,
2013-01-06 21:13:00,35.7,32.5,29.99,WNW,284,5.0,6.0,88,0.00,,,0.01,Wunderground v.1.15,2013-01-07 02:13:00,
2013-01-06 21:19:00,35.7,32.5,29.99,West,278,5.0,7.0,88,0.00,,,0.01,Wunderground v.1.15,2013-01-07 02:19:00,
2013-01-06 21:24:00,35.8,32.6,29.99,WNW,290,5.0,10.0,88,0.00,,,0.01,Wunderground v.1.15,2013-01-07 02:24:00,
2013-01-06 21:30:00,35.7,32.5,29.99,West,280,6.0,10.0,88,0.00,,,0.01,Wunderground v.1.15,2013-01-07 02:30:00,
2013-01-06 21:36:00,35.7,32.5,29.99,WNW,285,7.0,9.0,88,0.00,,,0.01,Wunderground v.1.15,2013-01-07 02:36:00,
2013-01-06 21:42:00,35.7,32.5,29.99,WNW,291,6.0,7.0,88,0.00,,,0.01,Wunderground v.1.15,2013-01-07 02:42:00,
2013-01-06 21:47:00,35.6,32.4,29.99,WNW,290,6.0,7.0,88,0.00,,,0.01,Wunderground v.1.15,2013-01-07 02:47:00,
2013-01-06 21:53:00,35.7,32.5,30.00,WNW,284,7.0,8.0,88,0.00,,,0.01,Wunderground v.1.15,2013-01-07 02:53:00,
2013-01-06 21:59:00,35.7,32.2,29.99,WNW,293,8.0,9.0,87,0.00,,,0.01,Wunderground v.1.15,2013-01-07 02:59:00,
2013-01-06 22:05:00,35.7,32.2,30.00,West,267,6.0,7.0,87,0.00,,,0.01,Wunderground v.1.15,2013-01-07 03:05:00,
2013-01-06 22:11:00,35.8,32.3,30.00,WNW,295,7.0,9.0,87,0.00,,,0.01,Wunderground v.1.15,2013-01-07 03:11:00,
2013-01-06 22:16:00,35.7,32.2,30.00,NW,305,8.0,12.0,87,0.00,,,0.01,Wunderground v.1.15,2013-01-07 03:16:00,
2013-01-06 22:21:00,35.7,32.2,30.00,NW,315,7.0,7.0,87,0.00,,,0.01,Wunderground v.1.15,2013-01-07 03:21:00,
2013-01-06 22:27:00,35.6,32.1,30.00,WNW,284,8.0,16.0,87,0.00,,,0.01,Wunderground v.1.15,2013-01-07 03:27:00,
2013-01-06 22:33:00,35.6,32.1,30.00,WNW,291,9.0,14.0,87,0.00,,,0.01,Wunderground v.1.15,2013-01-07 03:33:00,
2013-01-06 22:38:00,35.6,32.1,30.01,WNW,287,9.0,14.0,87,0.00,,,0.01,Wunderground v.1.15,2013-01-07 03:38:00,
2013-01-06 22:44:00,35.7,31.9,30.01,West,264,7.0,8.0,86,0.00,,,0.01,Wunderground v.1.15,2013-01-07 03:44:00,
2013-01-06 22:49:00,35.6,31.8,30.01,WNW,291,7.0,13.0,86,0.00,,,0.01,Wunderground v.1.15,2013-01-07 03:49:00,
2013-01-06 22:55:00,35.5,32.0,30.01,West,266,8.0,11.0,87,0.00,,,0.01,Wunderground v.1.15,2013-01-07 03:55:00,
2013-01-06 23:01:00,35.5,32.0,30.01,WNW,297,9.0,9.0,87,0.00,,,0.00,Wunderground v.1.15,2013-01-07 04:01:00,
2013-01-06 23:06:00,35.4,31.9,30.01,West,281,8.0,14.0,87,0.00,,,0.00,Wunderground v.1.15,2013-01-07 04:06:00,
2013-01-06 23:12:00,35.4,32.2,30.01,WNW,285,7.0,11.0,88,0.00,,,0.00,Wunderground v.1.15,2013-01-07 04:12:00,
2013-01-06 23:17:00,35.3,32.1,30.01,West,271,8.0,11.0,88,0.00,,,0.00,Wunderground v.1.15,2013-01-07 04:17:00,
2013-01-06 23:23:00,35.3,32.1,30.01,NNW,328,8.0,10.0,88,0.00,,,0.00,Wunderground v.1.15,2013-01-07 04:23:00,
2013-01-06 23:28:00,35.4,31.9,30.01,WSW,256,8.0,16.0,87,0.00,,,0.00,Wunderground v.1.15,2013-01-07 04:28:00,
2013-01-06 23:34:00,35.5,32.0,30.01,WNW,291,8.0,10.0,87,0.00,,,0.00,Wunderground v.1.15,2013-01-07 04:34:00,
2013-01-06 23:39:00,35.4,31.9,30.01,WNW,284,8.0,11.0,87,0.00,,,0.00,Wunderground v.1.15,2013-01-07 04:39:00,
2013-01-06 23:44:00,35.4,31.9,30.02,WNW,298,7.0,12.0,87,0.00,,,0.00,Wunderground v.1.15,2013-01-07 04:44:00,
2013-01-06 23:50:00,35.4,31.9,30.02,WNW,287,8.0,12.0,87,0.00,,,0.00,Wunderground v.1.15,2013-01-07 04:50:00,
2013-01-06 23:55:00,35.4,31.9,30.02,WNW,283,9.0,9.0,87,0.00,,,0.00,Wunderground v.1.15,2013-01-07 04:55:00,